Terminal Aerodrome Forecast
Issued by NWS Chicago, IL

Home | Current Version | Previous Version | Graphics & Text | Print | Product List | Glossary On
Versions: 1 2 3 4 5 6 7 8 9 10 11 12 13 14 15 16 17 18 19 20 21 22 23 24 25 26 27 28 29 30 31 32
000
FTUS43 KLOT 150900 AAA
TAFRFD
TAF AMD
KRFD 150900Z 1509/1606 33009KT P6SM SCT060
     FM151800 29008KT P6SM SCT070
     FM160000 VRB04KT P6SM SCT150=

USA.gov is the U.S. government's official web portal to all federal, state and local government web resources and services.